Location: Newark
(15.4608°S, 41.1635°W)
Time: 00:43:39
(UTC+00:00)

Tiros 1 - All Passes

Search period start: 31 July 2021 00:00
Search period end: 10 August 2021 00:00
Orbit: 630 x 664 km, 48.4° (Epoch: 30 July)

Date Brightness Start Highest point End Pass type
(mag) Time Alt. Az. Time Alt. Az. Time Alt. Az.
31 Jul - 06:54:01 10° NW 06:58:37 85° NE 07:03:17 10° SE visible
31 Jul - 08:40:46 10° SW 08:41:07 10° SW 08:41:28 10° SW visible
31 Jul - 15:37:27 10° S 15:40:34 17° SE 15:43:41 10° E daylight
31 Jul - 17:18:11 10° SW 17:22:51 50° NW 17:27:29 10° NNE daylight
01 Aug - 05:38:58 10° N 05:42:35 23° NE 05:46:14 10° ESE night (unlit)
01 Aug - 07:20:31 10° WNW 07:24:35 30° SW 07:28:42 10° SSE visible
01 Aug - 16:02:04 10° SSW 16:06:41 46° SE 16:11:17 10° ENE daylight
01 Aug - 17:45:39 10° W 17:48:37 16° NW 17:51:35 10° NNW daylight
02 Aug - 06:03:47 10° NW 06:08:22 75° NE 06:13:01 10° SE night (unlit)
02 Aug - 07:49:20 10° WSW 07:50:49 11° SW 07:52:18 10° SSW visible
02 Aug - 14:47:28 10° S 14:50:16 15° SE 14:53:03 10° ESE daylight
02 Aug - 16:27:53 10° SW 16:32:35 57° NW 16:37:18 10° NNE daylight
03 Aug - 04:48:59 10° N 04:52:22 20° NE 04:55:45 10° E night (unlit)
03 Aug - 06:30:07 10° WNW 06:34:19 34° SW 06:38:33 10° SSE visible
03 Aug - 15:11:54 10° SSW 15:16:25 40° SE 15:20:55 10° ENE daylight
03 Aug - 16:55:05 10° W 16:58:22 18° NW 17:01:39 10° N daylight
04 Aug - 05:13:34 10° NNW 05:18:08 66° NE 05:22:44 10° SE night (unlit)
04 Aug - 06:58:28 10° WSW 07:00:31 13° SW 07:02:33 10° SSW night (unlit)
04 Aug - 13:57:33 10° S 13:59:57 14° SE 14:02:21 10° ESE daylight
04 Aug - 15:37:35 10° SW 15:42:19 65° NW 15:47:04 10° NNE daylight
05 Aug - 03:59:01 10° N 04:02:08 18° NE 04:05:14 10° E night (unlit)
05 Aug - 05:39:45 10° WNW 05:44:03 38° SW 05:48:23 10° SSE night (unlit)
05 Aug - 14:21:44 10° SSW 14:26:08 36° SE 14:30:32 10° ENE daylight
05 Aug - 16:04:34 10° W 16:08:07 21° NW 16:11:40 10° N daylight
06 Aug - 04:23:22 10° NNW 04:27:54 57° NE 04:32:26 10° SE night (unlit)
06 Aug - 06:07:45 10° WSW 06:10:13 14° SW 06:12:41 10° S night (unlit)
06 Aug - 13:07:45 10° SSE 13:09:38 12° SE 13:11:32 10° ESE daylight
06 Aug - 14:47:18 10° SW 14:52:04 74° NW 14:56:50 10° NE daylight
07 Aug - 03:09:07 10° NNE 03:11:54 16° NE 03:14:40 10° E night (unlit)
07 Aug - 04:49:24 10° WNW 04:53:48 43° SW 04:58:13 10° SSE night (unlit)
07 Aug - 13:31:35 10° SSW 13:35:51 32° SE 13:40:07 10° ENE daylight
07 Aug - 15:14:05 10° WSW 15:17:52 23° NW 15:21:39 10° N daylight
08 Aug - 03:33:11 10° NNW 03:37:40 50° NE 03:42:09 10° SE night (unlit)
08 Aug - 05:17:07 10° W 05:19:55 16° SW 05:22:44 10° S night (unlit)
08 Aug - 12:18:10 10° SSE 12:19:19 11° SE 12:20:28 10° SE daylight
08 Aug - 13:57:01 10° SW 14:01:48 84° NW 14:06:35 10° NE daylight
09 Aug - 02:19:18 10° NNE 02:21:40 14° NE 02:24:01 10° E night (unlit)
09 Aug - 03:59:03 10° WNW 04:03:32 49° SW 04:08:02 10° SSE night (unlit)
09 Aug - 12:41:27 10° SSW 12:45:34 29° SE 12:49:41 10° ENE daylight
09 Aug - 14:23:39 10° WSW 14:27:36 26° NW 14:31:35 10° N daylight
